Regional Weather Roundup
Issued by NWS

Home | Current Version | Previous Version | Text Only | Print | Product List | Glossary Off
Versions: 1 2 3 4 5 6 7 8 9 10 11 12 13 14 15 16 17 18 19 20 21 22 23 24 25 26 27 28 29 30 31 32 33 34 35 36 37 38 39 40 41 42 43 44 45 46 47 48 49 50

000
ASUS43 KLSX 230759
RWRMO

WEATHER SUMMARY FOR MISSOURI
NATIONAL WEATHER SERVICE SPRINGFIELD MO
300 AM CDT SAT AUG 23 2014

NOTE: "FAIR" INDICATES FEW OR NO CLOUDS BELOW 12,000 FEET WITH NO
       SIGNIFICANT WEATHER AND/OR OBSTRUCTIONS TO VISIBILITY.
       CURRENT SKY AND/OR WEATHER CONDITIONS ARE NOT AVAILABLE FOR
       CHILLICOTHE AND FARMINGTON.

MOZ001>031-035>038-043-044-053-054-230900-
...NORTHERN AND WESTERN MISSOURI...

CITY           SKY/WX    TMP DP  RH WIND       PRES   REMARKS
KANSAS CTY INT PTCLDY    77  70  79 S10       29.90F
KANSAS C DTWN  CLEAR     82  70  66 S8        29.90S
LEE`S SUMMIT   CLEAR     79  69  71 S7        29.92F
ST JOSEPH      PTCLDY    77  75  93 S6        29.88F
KIRKSVILLE     MOCLDY    77  75  93 NE5       29.95R

$$
MOZ066>068-077>081-088>096-101>105-230900-
...SOUTHWEST MISSOURI...

CITY           SKY/WX    TMP DP  RH WIND       PRES   REMARKS
SPRINGFIELD    CLEAR     77  71  82 S7        29.99S
JOPLIN         CLEAR     79  71  76 S12       29.96F

$$
MOZ032>034-039>042-045>050-055>058-069>072-230900-
...CENTRAL MISSOURI...

CITY           SKY/WX    TMP DP  RH WIND       PRES   REMARKS
COLUMBIA       CLEAR     77  76  96 CALM      29.94S
JEFFERSON CITY CLEAR     79  76  90 CALM      29.93R
ROLLA          CLEAR     77  69  76 SW8       29.97R
SEDALIA        CLEAR     76  71  85 S6        29.95S
OSAGE BEACH    CLEAR     75  70  83 CALM      29.96S

$$
MOZ051-052-059>065-230900-
...EAST CENTRAL MISSOURI...

CITY           SKY/WX    TMP DP  RH WIND       PRES   REMARKS
ST LOUIS INTL  MOCLDY    81  77  88 E5        29.93F
SPIRIT OF STL  PTCLDY    76  75  97 CALM      29.92S
ST CHARLES     CLEAR     76  75  97 E3        29.91S FOG

$$
MOZ072>076-082>087-097>100-106>115-230900-
...SOUTH CENTRAL AND SOUTHEAST MISSOURI...

CITY           SKY/WX    TMP DP  RH WIND       PRES   REMARKS
CAPE GIRARDEAU CLEAR     77  74  90 S5        29.95F
FARMINGTON     CLEAR     77  73  88 S5        29.99F
POPLAR BLUFF   PTCLDY    77  72  84 SW3       29.95S
WEST PLAINS    CLEAR     77  71  82 SW5       30.02S

$$


USA.gov is the U.S. government's official web portal to all federal, state and local government web resources and services.